Regional Weather Roundup
Issued by NWS

Home | Current Version | Previous Version | Text Only | Print | Product List | Glossary On
Versions: 1 2 3 4 5 6 7 8 9 10 11 12 13 14 15 16 17 18 19 20 21 22 23 24 25 26 27 28 29 30 31 32 33 34 35 36 37 38 39 40 41 42 43 44 45 46 47 48 49 50
000
ASUS42 KKEY 011510
RWRKEY

FLORIDA REGIONAL WEATHER ROUNDUP FOR THE FLORIDA KEYS
NATIONAL WEATHER SERVICE KEY WEST FLORIDA
1100 AM EDT WED JUL 01 2015

...SOUTH FLORIDA AND THE KEYS...

CITY           SKY/WX    TMP DP  RH WIND       PRES   REMARKS
FORT MYERS     SUNNY     88  73  61 VRB5      30.14F HX  95
SW REGIONAL AP SUNNY     88  71  57 SW3       30.15F HX  94
NAPLES         SUNNY     88  73  61 CALM      30.15  HX  95
MIAMI          MOSUNNY   89  71  55 SE13      30.15S HX  95
WEST KENDALL   SUNNY     89  72  56 SE8       30.15S HX  96
HOMESTEAD      SUNNY     89  75  62 SE8       30.15S HX  98
MARATHON       SUNNY     90  78  68 E7        30.13S HX 104
BOCA CHICA NAS MOSUNNY   89  74  60 E14       30.13R HX  98
KEY WEST INTL  SUNNY     88  77  69 E10       30.13R HX 100

...INTERNATIONAL WEATHER...

CITY           SKY/WX    TMP DP  RH WIND       PRES   REMARKS
NASSAU BAHAMAS PTSUNNY   88  77  70 SE12      30.17S HX 100
CANCUN MEXICO  PTSUNNY   88  77  70 N12       30.06S HX 100
COZUMEL MEXICO MOSUNNY   81  77  89 E6        30.05S

ADJACENT COASTAL WATERS...

STATION/POSITION TIME  SKY/WX   TEMP    WIND        PRES    WAVE
                                AIR SEA DIR/SP/G            HT/PER
                 (UTC)          (F)     (DEG/KT/KT) (MB)    (FT/S)
PULASKI SHOAL LI 1400            86     120/ 15/ 16 1019.8R
SAND KEY         1450            85     120/ 13/ 15 1020.0R
SOMBRERO KEY     1400            85     110/ 14/ 15 1021.0R
LONG KEY         1400            85 88  130/ 10/ 12 1021.4R
MOLASSES REEF    1400            84 85  110/ 10/ 11 1021.0R
FOWEY ROCKS      NOT AVBL

$$



USA.gov is the U.S. government's official web portal to all federal, state and local government web resources and services.